Showing default

CSS (WENTIAN), 53239

Orbit data source: Space-Track

CSS (WENTIAN), 53239 is a payload satellite owned by ZZHGB (CN) in LEO that was launched on Sun, 24 Jul 2022 UTC via a CHANG ZHENG 5B launch vehicle from the Wenchang Satellite Launch Center (WSC). Payload-class satellites include a variety of spacecraft equipped with specific instruments for various scientific and technological missions. These include communications satellites like Starlink; space stations such as the ISS; scientific satellites like the Hubble; Earth observation satellites from companies like Planet Labs, Umbra, and HawkEye 360; GPS; miniature CubeSats for education and research; and military/defense satellites.

Loading next visibility...
Identifier
53239, 2022-085A
Orbit
LEO
Country
Flag of CNCN / PRC
Related business
Manufacturer
CAST
Mission
Operational spacecraft
Bus & Motor
TIANHE, Unknown motor
Mass
23,050 kg wet, 21,500 kg dry
Launch date (UTC)
2022-07-24 (4 years ago)
Launch vehicle
CHANG ZHENG 5B
Launch site
Wenchang Satellite Launch Center (WSC)
Object type
Payload
Rocket body
Debris
Shape & HBR
Unknown shape, 14.1 m
Radar Cross Section
Large (>1 m²)

Expand to show TLE details & history
Last TLE update: 3 days ago

TLE from 3 days ago
0 CSS (WENTIAN)
1 53239U 22085A   26170.72834613  .00019835  00000-0  23343-3 0  9993
2 53239  41.4696 306.5363 0007350  99.2772 260.8898 15.60907257288237
Epoch: 2026-06-19T17:28Z
TLE epoch observation values (Epoch: 2026-06-19T17:28:49.105Z)
Latitude
-0.00005°
Longitude
136.37849°
Altitude
385.425 km
Speed
7.68 km/s
True Right ascension
20h 26m 08s
True Declination
0° 00' 00"
Sunlit
Object was in full shadow at epoch
Visualization orbit readout
Latitude
Unknown
Longitude
Unknown
Altitude
Unknown
Speed
Unknown
Apparent Right ascension
Unknown
Apparent Declination
Unknown
Sunlit
N/A
Visualization observer readout
Local Sidereal Time
21:23:38
Azimuth
Unknown
Elevation
Unknown
Doppler factor
Unknown
Orbital elements
Apogee altitude
392.241 km
Perigee altitude
382.296 km
Semi-major axis
6,765.405 km
Eccentricity
0.00074
Inclination
41.4696°
RAAN
306.5363°
Arg. of periapsis
99.2772°
True anomaly
260.80665°
Mean anomaly
260.8898°
Eccentric anomaly
260.84822°
Mean motion
3.90034 °/min
Orbital period
92.3 mins
BSTAR
0.00023343
Loading maneuver chart data...
Computing Atmospheric mass density...
Loading historical data...
Loading historical data...
Loading historical data...
Loading historical data...
Loading historical data...
Loading historical data...
Loading historical data...
Other satellites on launch #85 in the year 2022 (2022-07-24 UTC)

Documentation

Showing up to 5 results
|